, AK

(GMT )
Deadhorse

Weather History for PASC - March, 2014

Change the Weather History Date:

Thursday, March 13, 2014

  Actual Average Record
Temperature  
Mean Temperature -11 °F -  
Max Temperature -2 °F -5 °F 28 °F (1997)
Min Temperature -20 °F -17 °F -49 °F (1991)
Degree Days  
Heating Degree Days 76    
Moisture  
Dew Point -16 °F    
Average Humidity 76    
Maximum Humidity 82    
Minimum Humidity 71    
Precipitation  
Precipitation 0.00 in - - ()
Sea Level Pressure  
Sea Level Pressure 29.54 in    
Wind  
Wind Speed 8 mph (East)    
Max Wind Speed 16 mph    
Max Gust Speed -    
Visibility 10 miles    
Events      
Averages and records for this station are not official NWS values.
T = Trace of Precipitation, MM = Missing Value Source: NWS Daily Summary

Daily Weather History Graph

Daily Weather History Graph

Search for Another Location

Airport or City:

Trip Planner

Search our weather history database for the weather conditions in past years. The results will help you decide how hot, cold, wet, or windy it might be!

Date:

Astronomy

Mar. 13, 2014 Rise Set
Actual Time 8:24 AM AKDT 7:44 PM AKDT
Civil Twilight 7:23 AM AKDT 8:45 PM AKDT
Nautical Twilight 6:09 AM AKDT 10:00 PM AKDT
Astronomical Twilight 4:39 AM AKDT 11:31 PM AKDT
Moon 4:14 PM AKDT (3/13) 7:50 AM AKDT (3/13)
Length of Visible Light 13h 22m
Length of Day
11h 19m
Waxing Gibbous, 92% of the Moon is Illuminated
Mar 13
Waxing Gibbous
Mar 16
Full
Mar 23
Last Quarter
Mar 30
New
Apr 7
First Quarter

Hourly Weather History & Observations

Time (AKDT) Temp. Windchill Dew Point Humidity Pressure Visibility Wind Dir Wind Speed Gust Speed Precip Events Conditions
12:53 AM -20.0 °F -35.3 °F -24.0 °F 82% 29.57 in 10.0 mi East 5.8 mph - N/A   Partly Cloudy
1:53 AM -20.9 °F -34.3 °F -26.0 °F 77% 29.58 in 10.0 mi SE 4.6 mph - N/A   Clear
2:53 AM -18.0 °F -30.9 °F -23.1 °F 78% 29.59 in 10.0 mi SSE 4.6 mph - N/A   Clear
3:53 AM -18.0 °F -30.9 °F -23.1 °F 78% 29.58 in 10.0 mi East 4.6 mph - N/A   Scattered Clouds
4:53 AM -18.9 °F -35.8 °F -25.1 °F 74% 29.57 in 10.0 mi ENE 6.9 mph - N/A   Scattered Clouds
5:53 AM -18.0 °F -30.9 °F -24.0 °F 74% 29.58 in 10.0 mi East 4.6 mph - N/A   Scattered Clouds
6:53 AM -17.0 °F -31.7 °F -23.1 °F 74% 29.59 in 10.0 mi ENE 5.8 mph - N/A   Mostly Cloudy
7:53 AM -15.0 °F -32.4 °F -20.9 °F 75% 29.57 in 10.0 mi ENE 8.1 mph - N/A   Overcast
8:53 AM -15.0 °F -32.4 °F -20.9 °F 75% 29.57 in 10.0 mi ENE 8.1 mph - N/A   Mostly Cloudy
9:53 AM -11.9 °F -29.9 °F -18.0 °F 74% 29.57 in 10.0 mi ENE 9.2 mph - N/A   Clear
10:53 AM -9.0 °F -26.4 °F -16.1 °F 71% 29.57 in 10.0 mi ENE 9.2 mph - N/A   Overcast
11:53 AM -9.0 °F -27.4 °F -16.1 °F 71% 29.56 in 10.0 mi ENE 10.4 mph - N/A   Mostly Cloudy
12:53 PM -9.0 °F -28.4 °F -15.0 °F 75% 29.55 in 10.0 mi ENE 11.5 mph - N/A   Mostly Cloudy
1:53 PM -9.0 °F -26.4 °F -14.1 °F 79% 29.55 in 10.0 mi ENE 9.2 mph - N/A   Mostly Cloudy
2:53 PM -6.0 °F -22.6 °F -11.9 °F 75% 29.55 in 10.0 mi ENE 9.2 mph - N/A   Mostly Cloudy
3:53 PM -5.1 °F -23.5 °F -11.0 °F 76% 29.53 in 10.0 mi ENE 11.5 mph - N/A   Mostly Cloudy
4:53 PM -4.0 °F -23.7 °F -9.9 °F 76% 29.52 in 10.0 mi East 13.8 mph - N/A   Mostly Cloudy
5:53 PM -5.1 °F -23.5 °F -11.0 °F 76% 29.51 in 10.0 mi ENE 11.5 mph - N/A   Clear
6:53 PM -7.1 °F -26.8 °F -11.9 °F 79% 29.50 in 10.0 mi East 12.7 mph - N/A   Mostly Cloudy
7:53 PM -6.0 °F -25.5 °F -11.0 °F 79% 29.49 in 10.0 mi East 12.7 mph - N/A   Overcast
8:53 PM -4.0 °F -23.7 °F -9.9 °F 76% 29.48 in 10.0 mi East 13.8 mph - N/A   Overcast
9:53 PM -4.0 °F -25.2 °F -9.0 °F 79% 29.47 in 10.0 mi East 16.1 mph - N/A   Mostly Cloudy
10:53 PM -2.9 °F -22.4 °F -9.0 °F 75% 29.46 in 10.0 mi East 13.8 mph - N/A   Mostly Cloudy
11:53 PM -2.9 °F -21.6 °F -8.0 °F 79% 29.45 in 10.0 mi East 12.7 mph - N/A   Mostly Cloudy